TimeEDT,TemperatureF,Dew PointF,Humidity,Sea Level PressureIn,VisibilityMPH,Wind Direction,Wind SpeedMPH,Gust SpeedMPH,PrecipitationIn,Events,Conditions,WindDirDegrees,DateUTC
12:53 AM,54.0,53.1,97,30.01,6.0,Calm,Calm,-,N/A,,Clear,0,2013-08-01 04:53:00
1:53 AM,53.1,52.0,96,30.01,7.0,Calm,Calm,-,N/A,,Clear,0,2013-08-01 05:53:00
2:53 AM,55.9,54.0,93,30.00,9.0,SSW,3.5,-,N/A,,Clear,200,2013-08-01 06:53:00
3:53 AM,55.0,53.1,93,30.01,7.0,Calm,Calm,-,N/A,,Clear,0,2013-08-01 07:53:00
4:53 AM,53.1,51.1,93,30.01,7.0,Calm,Calm,-,N/A,,Clear,0,2013-08-01 08:53:00
5:53 AM,52.0,51.1,97,30.01,5.0,Calm,Calm,-,N/A,,Clear,0,2013-08-01 09:53:00
6:53 AM,57.9,55.0,90,30.01,7.0,Calm,Calm,-,N/A,,Clear,0,2013-08-01 10:53:00
7:53 AM,64.9,60.1,84,30.02,9.0,Calm,Calm,-,N/A,,Clear,0,2013-08-01 11:53:00
8:53 AM,72.0,60.1,66,30.01,10.0,Calm,Calm,-,N/A,,Clear,0,2013-08-01 12:53:00
9:53 AM,75.0,57.9,55,30.01,10.0,South,3.5,-,N/A,,Clear,170,2013-08-01 13:53:00
10:53 AM,78.1,57.9,50,29.99,10.0,SSW,8.1,-,N/A,,Clear,210,2013-08-01 14:53:00
11:53 AM,80.1,55.0,42,29.98,10.0,South,6.9,-,N/A,,Clear,180,2013-08-01 15:53:00
12:53 PM,81.0,55.9,42,29.96,10.0,Variable,6.9,-,N/A,,Clear,0,2013-08-01 16:53:00
1:53 PM,81.0,55.9,42,29.93,10.0,SSE,8.1,-,N/A,,Clear,160,2013-08-01 17:53:00
2:53 PM,81.0,55.9,42,29.91,10.0,South,10.4,-,N/A,,Clear,190,2013-08-01 18:53:00
3:53 PM,80.1,57.0,45,29.90,10.0,SSE,9.2,-,N/A,,Mostly Cloudy,160,2013-08-01 19:53:00
4:53 PM,79.0,57.9,48,29.91,10.0,South,8.1,-,N/A,,Clear,170,2013-08-01 20:53:00
5:53 PM,77.0,55.9,48,29.90,10.0,SSE,15.0,21.9,N/A,,Mostly Cloudy,150,2013-08-01 21:53:00
6:53 PM,73.9,53.1,48,29.91,10.0,South,4.6,-,N/A,,Clear,180,2013-08-01 22:53:00
7:53 PM,68.0,53.1,59,29.91,10.0,SE,4.6,-,N/A,,Clear,140,2013-08-01 23:53:00
8:53 PM,66.9,54.0,63,29.91,10.0,South,5.8,-,N/A,,Clear,170,2013-08-02 00:53:00
9:53 PM,64.9,55.0,70,29.91,10.0,SSE,5.8,-,N/A,,Clear,160,2013-08-02 01:53:00
10:53 PM,63.0,57.0,81,29.90,10.0,South,4.6,-,N/A,,Clear,170,2013-08-02 02:53:00
11:53 PM,62.1,57.9,86,29.90,10.0,Variable,3.5,-,N/A,,Clear,0,2013-08-02 03:53:00